Orbital Elements at Epoch 2459200.5 (2020-Dec-17.0) TDB
Reference: JPL 13 (heliocentric ecliptic J2000)
Element | Value | Uncertainty (1-sigma) | Units |
e | .1742534880435128 | 3.702e-08 | |
a | 2.363954664224649 | 1.3702e-08 | au |
q | 1.952027318406773 | 8.9804e-08 | au |
i | 1.480553359357177 | 7.233e-06 | deg |
node | 15.29746736928314 | 0.00016391 | deg |
peri | 268.3880542277823 | 0.00016531 | deg |
M | 33.96421186410695 | 2.2634e-05 | deg |
tp | 2459075.250447601333 (2020-Aug-13.75044760) | 8.3012e-05 | TDB |
period | 1327.569120223596 3.63 | 1.1543e-05 3.16e-08 | d yr |
n | .2711723212870203 | 2.3577e-09 | deg/d |
Q | 2.775882010042525 | 1.609e-08 | au |
|
| | Orbit Determination Parameters
Additional Information
|